LEMUR-2-SARAHBETTYBOO (43888 NORAD) Tracking and Keplerian Element Data

This shows tracking and keplerian element data for the satellite.

Feedback or suggestion? Click here.




ElementValue
Catalog43888
NameLEMUR-2-SARAHBETTYBOO
Epoch Orbit295
Epoch Day15.93563621
Epoch Year2019
RAAN286.128
Inclination97.7297
Eccentricity0.0011467
Argument of Perigee169.3523
Mean Anonmoly190.7943
Mean Motion14.96687019
Decay Rate4.66E-06
L11 43888U 18111N 19015.93563621 .00000466 00000-0 45913-4 0 9996
L22 43888 97.7297 286.1280 0011467 169.3523 190.7943 14.96687019 2959

Live tracking and technical data element details for LEMUR-2-SARAHBETTYBOO (NORAD 43888). LEMUR-2-SARAHBETTYBOO can be tracked NOW for your location showing map with azimuth and elevation plus other details from your city location.

Track the satellite on the map from your city or location and see movement details for azimuth, elevation, latitude, longitude, range, height, and movement on the map or in text.







IsCatalogInMostPopularTable: catalog: 43888, numindb: 15
Update: records affected: 1



GetName: 43888 LEMUR-2-SARAHBETTYBOO

Hit Count: updated at: Thu, 17 Jan 2019 14:56:41 GMT